GW1622 Weather Reports


Display with metric or nautical units.
time (UTC)temp
F
wind
direction
speed
MPH
gust
MPH
rain 1hr
in
rain 24hr
in
rain mn
in
humidity
%
barometer
mb
20260905055523 65 0 0.0 0.0 0.00 0.00 0.00 89 1014.2
20260905055021 64 0 0.0 0.0 0.00 0.00 0.00 89 1014.2
20260905054540 65 0 0.0 0.0 0.00 0.00 0.00 89 1014.2
20260905054019 65 0 0.0 0.0 0.00 0.00 0.00 89 1014.2
20260905053519 65 0 0.0 0.0 0.00 0.00 0.00 89 1014.1
20260905053036 65 0 0.0 0.0 0.00 0.00 0.00 88 1014.1
20260905052527 65 0 0.0 0.0 0.00 0.00 0.00 88 1013.9
20260905052018 65 0 0.0 0.0 0.00 0.00 0.00 89 1014.0
20260905051540 65 0 0.0 0.0 0.00 0.00 0.00 88 1014.0
20260905051019 65 0 0.0 0.0 0.00 0.00 0.00 88 1014.1
20260905050518 65 0 0.0 0.0 0.00 0.00 0.00 88 1014.1
20260905050041 65 0 0.0 0.0 0.00 0.00 0.00 88 1014.1
20260905045521 65 0 0.0 0.0 0.00 0.00 0.00 88 1014.2
20260905045022 65 0 0.0 0.0 0.00 0.00 0.00 88 1014.2
20260905044540 65 0 0.0 1.0 0.00 0.00 0.00 88 1014.0
20260905044021 65 0 0.0 1.0 0.00 0.00 0.00 88 1014.0
20260905043518 65 0 0.0 1.0 0.00 0.00 0.00 88 1014.0
20260905043038 65 0 0.0 0.0 0.00 0.00 0.00 88 1013.9
20260905042520 65 0 0.0 0.0 0.00 0.00 0.00 88 1013.8
20260905042020 65 0 0.0 0.0 0.00 0.00 0.00 87 1013.8
20260905041537 66 0 0.0 0.0 0.00 0.00 0.00 87 1013.8
20260905041017 66 0 0.0 0.0 0.00 0.00 0.00 88 1013.7
20260905040517 65 0 0.0 0.0 0.00 0.00 0.00 87 1013.7
20260905040044 65 0 0.0 0.0 0.00 0.00 0.00 87 1013.7
20260905035519 65 0 0.0 0.0 0.00 0.00 0.00 87 1013.6
20260905035020 65 0 0.0 0.0 0.00 0.00 0.00 87 1013.6
20260905034546 65 0 0.0 0.0 0.00 0.00 0.00 87 1013.6
20260905034016 66 0 0.0 0.0 0.00 0.00 0.00 87 1013.7
20260905033520 66 0 0.0 0.0 0.00 0.00 0.00 87 1013.6
20260905033036 66 0 0.0 0.0 0.00 0.00 0.00 86 1013.5
20260905032520 66 0 0.0 0.0 0.00 0.00 0.00 86 1013.4
20260905032018 66 0 0.0 0.0 0.00 0.00 0.00 86 1013.4
20260905031538 66 0 0.0 0.0 0.00 0.00 0.00 86 1013.2
20260905031020 66 0 0.0 0.0 0.00 0.00 0.00 86 1013.3
20260905030519 66 0 0.0 0.0 0.00 0.00 0.00 85 1013.3
20260905030041 66 0 0.0 0.0 0.00 0.00 0.00 85 1013.3
20260905025517 66 0 0.0 0.0 0.00 0.00 0.00 85 1013.1
20260905025020 66 0 0.0 0.0 0.00 0.00 0.00 85 1013.1
20260905024551 67 0 0.0 0.0 0.00 0.00 0.00 84 1013.1
20260905024021 67 0 0.0 0.0 0.00 0.00 0.00 84 1013.0
20260905023520 67 0 0.0 1.0 0.00 0.00 0.00 84 1013.0
20260905023043 67 0 0.0 1.0 0.00 0.00 0.00 83 1012.9
20260905022521 67 0 0.0 1.0 0.00 0.00 0.00 83 1013.0
20260905022021 67 121 0.0 1.0 0.00 0.00 0.00 83 1013.0
20260905021542 67 0 0.0 0.0 0.00 0.00 0.00 82 1013.1
20260905021018 67 0 0.0 0.0 0.00 0.00 0.00 82 1013.1
20260905020520 67 0 0.0 1.0 0.00 0.00 0.00 82 1013.0
20260905020048 68 0 0.0 1.0 0.00 0.00 0.00 82 1013.2
20260905015517 68 0 0.0 1.0 0.00 0.00 0.00 82 1013.1
20260905015019 68 0 0.0 1.0 0.00 0.00 0.00 81 1013.1
20260905014539 68 0 0.0 2.0 0.00 0.00 0.00 81 1013.0
20260905014019 68 0 0.0 2.0 0.00 0.00 0.00 81 1013.0
20260905013517 68 290 0.0 2.0 0.00 0.00 0.00 81 1013.0
20260905013036 68 0 0.0 5.0 0.00 0.00 0.00 80 1012.9
20260905012520 69 0 0.0 5.0 0.00 0.00 0.00 80 1013.0
20260905012019 69 5 2.0 5.0 0.00 0.00 0.00 80 1012.9
20260905011541 69 0 0.0 3.0 0.00 0.00 0.00 80 1013.0
20260905011020 69 352 1.0 3.0 0.00 0.00 0.00 80 1013.0
20260905010516 69 234 0.0 3.0 0.00 0.00 0.00 80 1013.0
20260905010041 69 0 1.0 3.0 0.00 0.00 0.00 79 1013.1
20260905005521 69 338 0.0 3.0 0.00 0.00 0.00 79 1013.1
20260905005019 69 0 0.0 4.0 0.00 0.00 0.00 79 1013.1
20260905004549 69 0 2.0 5.0 0.00 0.00 0.00 78 1013.2
20260905004020 70 40 1.0 6.0 0.00 0.00 0.00 78 1013.1
20260905003518 70 28 1.0 6.0 0.00 0.00 0.00 78 1013.2
20260905003035 70 81 1.0 5.0 0.00 0.00 0.00 77 1013.2
20260905002521 70 348 2.0 5.0 0.00 0.00 0.00 76 1013.1
20260905002020 71 5 0.0 6.0 0.00 0.00 0.00 77 1013.0
20260905001540 71 307 1.0 6.0 0.00 0.00 0.00 77 1013.0
20260905001018 71 53 1.0 5.0 0.00 0.00 0.00 76 1013.0
20260905000516 71 325 2.0 5.0 0.00 0.00 0.00 76 1012.9
20260905000039 71 57 1.0 5.0 0.00 0.00 0.00 76 1013.0
20260904235521 71 96 2.0 5.0 0.00 0.00 0.00 76 1013.0
20260904235023 71 123 0.0 5.0 0.00 0.00 0.00 76 1013.0
20260904234557 71 150 1.0 5.0 0.00 0.00 0.00 75 1013.2
20260904234024 71 5 2.0 7.0 0.00 0.00 0.00 75 1013.1
20260904233517 71 168 2.0 7.0 0.00 0.00 0.00 75 1013.1
20260904233052 72 327 2.0 7.0 0.00 0.00 0.00 73 1013.1
20260904232518 72 0 2.0 8.0 0.00 0.00 0.00 73 1013.1
20260904232018 73 42 1.0 8.0 0.00 0.00 0.00 73 1013.2
20260904231541 73 71 2.0 7.0 0.00 0.00 0.00 72 1013.2
20260904231021 73 224 1.0 5.0 0.00 0.00 0.00 72 1013.2
20260904230517 73 112 2.0 5.0 0.00 0.00 0.00 72 1013.3
20260904230040 73 258 2.0 5.0 0.00 0.00 0.00 72 1013.2
20260904225523 72 52 2.0 7.0 0.00 0.00 0.00 72 1013.3
20260904225020 73 15 2.0 7.0 0.00 0.00 0.00 72 1013.4
20260904224545 73 302 2.0 9.0 0.00 0.00 0.00 72 1013.5
20260904224018 73 290 3.0 9.0 0.00 0.00 0.00 71 1013.5
20260904223518 73 41 3.0 7.0 0.00 0.00 0.00 72 1013.5
20260904223041 74 0 2.0 7.0 0.00 0.00 0.00 70 1013.6
20260904222519 74 265 3.0 7.0 0.00 0.00 0.00 70 1013.6
20260904222021 74 17 2.0 6.0 0.00 0.00 0.00 70 1013.6
20260904221544 74 27 2.0 10.0 0.00 0.00 0.00 70 1013.6
20260904221019 74 59 1.0 10.0 0.00 0.00 0.00 70 1013.7
20260904220522 74 46 2.0 10.0 0.00 0.00 0.00 68 1013.8
20260904220038 75 101 1.0 6.0 0.00 0.00 0.00 68 1013.7
20260904215521 75 61 2.0 6.0 0.00 0.00 0.00 68 1013.8
20260904215017 75 84 1.0 6.0 0.00 0.00 0.00 69 1013.6
20260904214543 75 85 2.0 6.0 0.00 0.00 0.00 68 1013.6
20260904214024 74 109 1.0 6.0 0.00 0.00 0.00 68 1013.5
20260904213521 75 248 2.0 7.0 0.00 0.00 0.00 68 1013.6
20260904213037 74 50 2.0 7.0 0.00 0.00 0.00 70 1013.6
20260904212520 75 50 2.0 7.0 0.00 0.00 0.00 67 1013.6
20260904212023 76 166 2.0 7.0 0.00 0.00 0.00 65 1013.6
20260904211539 76 5 2.0 7.0 0.00 0.00 0.00 66 1013.6
20260904211017 76 84 2.0 9.0 0.00 0.00 0.00 67 1013.6
20260904210516 76 56 2.0 9.0 0.00 0.00 0.00 66 1013.8
20260904210042 77 77 2.0 9.0 0.00 0.00 0.00 64 1013.8
20260904205518 76 0 1.0 5.0 0.00 0.00 0.00 67 1013.9
20260904205020 77 136 1.0 6.0 0.00 0.00 0.00 65 1013.9
20260904204535 77 42 2.0 6.0 0.00 0.00 0.00 65 1014.0
20260904204017 76 0 1.0 8.0 0.00 0.00 0.00 66 1013.9
20260904203520 75 45 2.0 8.0 0.00 0.00 0.00 68 1013.9
20260904203040 75 123 2.0 8.0 0.00 0.00 0.00 67 1013.9
20260904202523 74 60 3.0 8.0 0.00 0.00 0.00 67 1014.1
20260904202020 76 346 2.0 7.0 0.00 0.00 0.00 64 1014.2
20260904201541 76 279 1.0 7.0 0.00 0.00 0.00 66 1014.1
20260904201017 76 343 2.0 5.0 0.00 0.00 0.00 66 1014.2
20260904200519 76 85 2.0 6.0 0.00 0.00 0.00 66 1014.2
20260904200049 76 138 2.0 6.0 0.00 0.00 0.00 67 1014.2
20260904195518 76 175 2.0 6.0 0.00 0.00 0.00 67 1014.3
20260904195018 77 68 1.0 5.0 0.00 0.00 0.00 65 1014.3
20260904194542 75 0 2.0 6.0 0.00 0.00 0.00 68 1014.3
20260904194019 76 48 2.0 6.0 0.00 0.00 0.00 67 1014.3
20260904193521 74 64 2.0 6.0 0.00 0.00 0.00 68 1014.3
20260904193046 74 59 2.0 8.0 0.00 0.00 0.00 69 1014.3
20260904192521 74 200 1.0 8.0 0.00 0.00 0.00 69 1014.2
20260904192017 75 110 1.0 7.0 0.00 0.00 0.00 68 1014.5
20260904191537 75 35 2.0 7.0 0.00 0.00 0.00 68 1014.4
20260904191017 74 78 1.0 6.0 0.00 0.00 0.00 69 1014.5
20260904190517 75 0 1.0 7.0 0.00 0.00 0.00 67 1014.5
20260904190041 75 111 2.0 7.0 0.00 0.00 0.00 68 1014.6
20260904185519 75 36 2.0 9.0 0.00 0.00 0.00 67 1014.6
20260904185020 73 19 2.0 9.0 0.00 0.00 0.00 69 1014.8
20260904184557 75 39 1.0 6.0 0.00 0.00 0.00 67 1014.7
20260904184021 75 26 1.0 6.0 0.00 0.00 0.00 68 1014.7
20260904183518 76 0 1.0 5.0 0.00 0.00 0.00 67 1014.7
20260904183043 74 13 2.0 7.0 0.00 0.00 0.00 69 1014.8
20260904182517 75 119 2.0 7.0 0.00 0.00 0.00 68 1014.9
20260904182026 75 0 1.0 7.0 0.00 0.00 0.00 68 1014.8
20260904181542 74 92 1.0 5.0 0.00 0.00 0.00 69 1014.8
20260904181027 74 90 2.0 8.0 0.00 0.00 0.00 69 1014.7
20260904180520 74 13 2.0 8.0 0.00 0.00 0.00 69 1014.7
20260904180056 73 108 1.0 5.0 0.00 0.00 0.00 70 1014.7
20260904175518 73 43 1.0 5.0 0.00 0.00 0.00 70 1014.8
20260904175018 73 167 1.0 6.0 0.00 0.00 0.00 70 1014.9
20260904174541 73 134 1.0 7.0 0.00 0.00 0.00 70 1014.7
20260904174020 73 331 2.0 8.0 0.00 0.00 0.00 70 1014.9
20260904173517 73 131 1.0 8.0 0.00 0.00 0.00 71 1014.8
20260904173048 73 129 2.0 5.0 0.00 0.00 0.00 70 1014.9
20260904172521 72 159 1.0 5.0 0.00 0.00 0.00 72 1014.9
20260904172022 73 89 1.0 6.0 0.00 0.00 0.00 70 1014.9
20260904171543 72 126 2.0 6.0 0.00 0.00 0.00 70 1014.7
20260904171019 73 150 1.0 6.0 0.00 0.00 0.00 70 1014.9
20260904170519 73 0 1.0 6.0 0.00 0.00 0.00 71 1014.9
20260904170041 72 65 1.0 7.0 0.00 0.00 0.00 71 1014.9
20260904165518 72 81 2.0 7.0 0.00 0.00 0.00 71 1014.8
20260904165020 72 92 0.0 4.0 0.00 0.00 0.00 72 1014.6
20260904164541 72 84 1.0 4.0 0.00 0.00 0.00 72 1014.6
20260904164021 72 67 1.0 4.0 0.00 0.00 0.00 72 1014.6
20260904163520 71 96 1.0 6.0 0.00 0.00 0.00 73 1014.6
20260904163040 70 62 1.0 6.0 0.00 0.00 0.00 74 1014.6
20260904162527 70 134 2.0 6.0 0.00 0.00 0.00 74 1014.6
20260904162018 71 131 2.0 5.0 0.00 0.00 0.00 73 1014.5
20260904161542 71 174 1.0 5.0 0.00 0.00 0.00 74 1014.4
20260904161021 70 0 2.0 5.0 0.00 0.00 0.00 75 1014.3
20260904160521 70 204 2.0 5.0 0.00 0.00 0.00 76 1014.4
20260904160042 69 219 1.0 7.0 0.00 0.00 0.00 75 1014.3
20260904155519 69 112 2.0 7.0 0.00 0.00 0.00 75 1014.2
20260904155020 69 0 1.0 4.0 0.00 0.00 0.00 77 1014.2
20260904154538 68 0 0.0 4.0 0.00 0.00 0.00 77 1014.2
20260904154020 68 0 1.0 4.0 0.00 0.00 0.00 78 1014.1
20260904153520 67 145 0.0 2.0 0.00 0.00 0.00 79 1014.0
20260904153049 67 360 0.0 2.0 0.00 0.00 0.00 81 1013.9
20260904152519 66 0 0.0 2.0 0.00 0.00 0.00 81 1013.9
20260904152018 66 0 0.0 3.0 0.00 0.00 0.00 82 1014.1
20260904151543 65 352 0.0 3.0 0.00 0.00 0.00 83 1014.0
20260904151022 65 0 1.0 3.0 0.00 0.00 0.00 83 1014.1
20260904150518 65 26 1.0 3.0 0.00 0.00 0.00 83 1014.2
20260904150045 65 35 0.0 3.0 0.00 0.00 0.00 82 1014.0
20260904145521 66 82 1.0 4.0 0.00 0.00 0.00 81 1014.1
20260904145020 65 0 0.0 4.0 0.00 0.00 0.00 82 1014.1
20260904144541 65 0 1.0 4.0 0.00 0.00 0.00 83 1014.2
20260904144020 64 136 1.0 3.0 0.00 0.00 0.00 84 1014.1
20260904143520 64 0 0.0 2.0 0.00 0.00 0.00 85 1014.1
20260904143040 63 0 0.0 0.0 0.00 0.00 0.00 86 1014.1
20260904142524 63 0 0.0 2.0 0.00 0.00 0.00 85 1014.0
20260904142019 63 0 0.0 2.0 0.00 0.00 0.00 85 1014.0
20260904141603 63 0 0.0 2.0 0.00 0.00 0.00 85 1013.8
20260904141020 63 98 0.0 2.0 0.00 0.00 0.00 86 1013.9
20260904140518 63 0 0.0 1.0 0.00 0.00 0.00 87 1013.7
20260904140041 62 0 0.0 2.0 0.00 0.00 0.00 87 1013.7
20260904135520 62 97 0.0 2.0 0.00 0.00 0.00 87 1013.7
20260904135020 61 98 0.0 0.0 0.00 0.00 0.00 87 1013.7
20260904134542 61 0 0.0 0.0 0.00 0.00 0.00 88 1013.6
20260904134020 61 0 0.0 0.0 0.00 0.00 0.00 87 1013.6
20260904133518 61 0 0.0 0.0 0.00 0.00 0.00 88 1013.5
20260904133043 61 0 0.0 0.0 0.00 0.00 0.00 87 1013.4
20260904132524 62 0 0.0 0.0 0.00 0.00 0.00 87 1013.4
20260904132020 62 0 0.0 0.0 0.00 0.00 0.00 87 1013.3
20260904131558 62 0 0.0 1.0 0.00 0.00 0.00 87 1013.2
20260904131020 62 0 0.0 1.0 0.00 0.00 0.00 88 1013.3
20260904130520 62 0 0.0 1.0 0.00 0.00 0.00 88 1013.3
20260904130041 61 0 0.0 1.0 0.00 0.00 0.00 88 1013.3
20260904125519 61 0 0.0 0.0 0.00 0.00 0.00 88 1013.2
20260904125018 61 0 0.0 0.0 0.00 0.00 0.00 88 1013.2
20260904124543 61 0 0.0 0.0 0.00 0.00 0.00 88 1013.2
20260904124018 61 0 0.0 0.0 0.00 0.00 0.00 88 1013.3
20260904123526 61 0 0.0 0.0 0.00 0.00 0.00 88 1013.1
20260904123057 61 0 0.0 0.0 0.00 0.00 0.00 89 1013.1
20260904122520 61 0 0.0 0.0 0.00 0.00 0.00 89 1013.2
20260904122022 61 0 0.0 0.0 0.00 0.00 0.00 89 1013.1
20260904121541 61 0 0.0 0.0 0.00 0.00 0.00 89 1013.2
20260904121021 61 0 0.0 0.0 0.00 0.00 0.00 89 1013.1
20260904120517 62 0 0.0 0.0 0.00 0.00 0.00 89 1013.1
20260904120041 62 0 0.0 0.0 0.00 0.00 0.00 88 1013.1
20260904115521 62 0 0.0 0.0 0.00 0.00 0.00 89 1013.1
20260904115018 62 0 0.0 0.0 0.00 0.00 0.00 88 1013.1
20260904114543 62 0 0.0 0.0 0.00 0.00 0.00 88 1013.2
20260904114018 62 0 0.0 0.0 0.00 0.00 0.00 88 1013.2
20260904113520 62 0 0.0 0.0 0.00 0.00 0.00 87 1013.3
20260904113039 63 0 0.0 0.0 0.00 0.00 0.00 87 1013.3
20260904112518 63 0 0.0 0.0 0.00 0.00 0.00 87 1013.2
20260904112017 63 0 0.0 0.0 0.00 0.00 0.00 87 1013.2
20260904111551 63 0 0.0 0.0 0.00 0.00 0.00 88 1013.3
20260904111017 63 0 0.0 0.0 0.00 0.00 0.00 88 1013.3
20260904110547 63 0 0.0 0.0 0.00 0.00 0.00 88 1013.3
20260904110040 63 0 0.0 0.0 0.00 0.00 0.00 88 1013.2
20260904105519 63 0 0.0 0.0 0.00 0.00 0.00 88 1013.3
20260904105020 63 0 0.0 0.0 0.00 0.00 0.00 89 1013.3
20260904104540 63 0 0.0 0.0 0.00 0.00 0.00 89 1013.2
20260904104021 63 0 0.0 0.0 0.00 0.00 0.00 89 1013.2
20260904103524 63 0 0.0 0.0 0.00 0.00 0.00 90 1013.1
20260904103044 63 0 0.0 2.0 0.00 0.00 0.00 90 1013.1
20260904102518 62 0 0.0 2.0 0.00 0.00 0.00 90 1013.0
20260904102018 62 0 0.0 2.0 0.00 0.00 0.00 90 1013.0
20260904101546 61 0 0.0 1.0 0.00 0.00 0.00 90 1013.1
20260904101019 61 0 0.0 1.0 0.00 0.00 0.00 89 1013.0
20260904100519 62 0 0.0 2.0 0.00 0.00 0.00 90 1013.1
20260904100039 62 0 0.0 2.0 0.00 0.00 0.00 89 1013.0
20260904095516 62 0 0.0 2.0 0.00 0.00 0.00 89 1013.1
20260904095022 63 0 0.0 0.0 0.00 0.00 0.00 90 1013.1
20260904094542 63 0 0.0 0.0 0.00 0.00 0.00 90 1013.1
20260904094021 62 0 0.0 0.0 0.00 0.00 0.00 90 1013.1
20260904093523 62 0 0.0 0.0 0.00 0.00 0.00 90 1013.1
20260904093040 62 0 0.0 0.0 0.00 0.00 0.00 90 1013.0
20260904092520 62 0 0.0 0.0 0.00 0.00 0.00 89 1013.0
20260904092017 62 0 0.0 0.0 0.00 0.00 0.00 89 1013.0
20260904091540 62 0 0.0 0.0 0.00 0.00 0.00 89 1013.1
20260904091020 62 0 0.0 0.0 0.00 0.00 0.00 89 1013.1
20260904090519 62 0 0.0 0.0 0.00 0.00 0.00 90 1013.1
20260904090042 62 0 0.0 0.0 0.00 0.00 0.00 89 1013.1
20260904085527 62 0 0.0 0.0 0.00 0.00 0.00 90 1013.1
20260904085021 62 0 0.0 0.0 0.00 0.00 0.00 90 1013.1
20260904084542 62 0 0.0 0.0 0.00 0.00 0.00 89 1013.2
20260904084017 62 0 0.0 0.0 0.00 0.00 0.00 89 1013.1
20260904083520 62 0 0.0 0.0 0.00 0.00 0.00 89 1013.2
20260904083051 62 0 0.0 0.0 0.00 0.00 0.00 89 1013.2
20260904082521 62 0 0.0 0.0 0.00 0.00 0.00 89 1013.3
20260904082020 62 0 0.0 0.0 0.00 0.00 0.00 89 1013.3
20260904081539 62 0 0.0 0.0 0.00 0.00 0.00 89 1013.2
20260904081023 62 0 0.0 0.0 0.00 0.00 0.00 89 1013.3
20260904080519 62 0 0.0 0.0 0.00 0.00 0.00 88 1013.3
20260904080040 62 0 0.0 0.0 0.00 0.00 0.00 88 1013.4
20260904075520 62 0 0.0 0.0 0.00 0.00 0.00 88 1013.5
20260904075020 63 0 0.0 0.0 0.00 0.00 0.00 88 1013.3
20260904074553 63 0 0.0 0.0 0.00 0.00 0.00 88 1013.5
20260904074017 63 0 0.0 0.0 0.00 0.00 0.00 88 1013.4
20260904073518 63 0 0.0 0.0 0.00 0.00 0.00 88 1013.4
20260904073041 63 0 0.0 0.0 0.00 0.00 0.00 88 1013.4
20260904072518 63 0 0.0 0.0 0.00 0.00 0.00 88 1013.5
20260904072018 63 0 0.0 0.0 0.00 0.00 0.00 88 1013.4
20260904071540 63 0 0.0 0.0 0.00 0.00 0.00 88 1013.4
20260904071021 63 0 0.0 1.0 0.00 0.00 0.00 88 1013.4
20260904070525 63 0 0.0 1.0 0.00 0.00 0.00 87 1013.5
20260904070039 63 0 0.0 1.0 0.00 0.00 0.00 88 1013.5
20260904065521 63 0 0.0 0.0 0.00 0.00 0.00 88 1013.5
20260904065017 63 0 0.0 0.0 0.00 0.00 0.00 87 1013.5
20260904064541 63 0 0.0 0.0 0.00 0.00 0.00 87 1013.5
20260904064017 63 0 0.0 0.0 0.00 0.00 0.00 87 1013.5
20260904063517 63 0 0.0 0.0 0.00 0.00 0.00 87 1013.5
20260904063053 63 0 0.0 0.0 0.00 0.00 0.00 87 1013.5
20260904062525 63 0 0.0 0.0 0.00 0.00 0.00 87 1013.4
20260904062021 63 0 0.0 0.0 0.00 0.00 0.00 87 1013.5
20260904061537 63 0 0.0 2.0 0.00 0.00 0.00 87 1013.5
20260904061018 64 0 0.0 2.0 0.00 0.00 0.00 87 1013.5
20260904060520 64 97 0.0 2.0 0.00 0.00 0.00 87 1013.4
20260904060105 64 0 0.0 1.0 0.00 0.00 0.00 87 1013.4